This demonstration page uses our WeatherBlox Daily Observations layout. Learn more.

Left ArrowRight Arrow

47.50024, -111.30081

Hourly Observations for July 24, 2020

Temp ( °F °C ) Dew Point ( °F °C ) Humidity (%) Winds ( mph kmh ) Pressure ( in mb ) Visibility ( mi km ) Precip ( " mm )
12:53 am 00:53 Clear 62 16.7 52 11.1 70 70 SSW 10 17 29.77 1008 10 16 0.00 0.00
1:53 am 01:53 Clear 61 16.1 52 11.1 72 72 S 10 17 29.76 1008 10 16 0.00 0.00
2:53 am 02:53 Clear 60 15.6 52 11.1 75 75 SSW 10 17 29.76 1008 10 16 0.00 0.00
3:53 am 03:53 Clear 61 16.1 51 10.6 70 70 SSW 12 19 29.78 1009 10 16 0.00 0.00
4:53 am 04:53 Clear 60 15.6 51 10.6 72 72 SSW 13 20 29.80 1009 10 16 0.00 0.00
5:53 am 05:53 Clear 60 15.6 52 11.1 75 75 SSW 10 17 29.83 1010 10 16 0.00 0.00
6:53 am 06:53 Sunny 61 16.1 52 11.1 72 72 SW 10 17 29.82 1010 10 16 0.00 0.00
7:53 am 07:53 Sunny 64 17.8 53 11.7 68 68 SSW 12 19 29.83 1010 10 16 0.00 0.00
8:53 am 08:53 Partly Cloudy 68 20 53 11.7 59 59 SSW 13 20 29.83 1010 10 16 0.00 0.00
9:53 am 09:53 Sunny 72 22.2 51 10.6 48 48 SW 21 33 29.82 1010 10 16 0.00 0.00
10:53 am 10:53 Sunny 74 23.3 48 8.9 40 40 SW 20 31 29.81 1009 10 16 0.00 0.00
11:53 am 11:53 Sunny 76 24.4 48 8.9 37 37 SW 18 30 29.80 1009 10 16 0.00 0.00
12:53 pm 12:53 Sunny 79 26.1 48 8.9 34 34 SSW 15 24 29.78 1008 10 16 0.00 0.00
1:53 pm 13:53 Partly Cloudy 80 26.7 47 8.3 31 31 SW 17 28 29.76 1008 10 16 0.00 0.00
2:53 pm 14:53 Partly Cloudy 83 28.3 46 7.8 27 27 SW 16 26 29.74 1007 10 16 0.00 0.00
3:53 pm 15:53 Mostly Cloudy 79 26.1 43 6.1 28 28 SSW 16 26 29.74 1007 10 16 0.00 0.00
4:53 pm 16:53 Sunny 85 29.4 42 5.6 22 22 WSW 18 30 29.71 1006 10 16 0.00 0.00
5:53 pm 17:53 Sunny 80 26.7 42 5.6 26 26 WSW 15 24 29.71 1006 10 16 0.00 0.00
6:53 pm 18:53 Mostly Sunny 81 27.2 43 6.1 26 26 WSW 14 22 29.70 1006 N/A 0.00 0.00
7:01 pm 19:01 Sunny 82 27.8 43 6.1 25 25 WSW 20 31 29.53 1000 10 16 0.00 0.00
7:53 pm 19:53 Sunny 79 26.1 45 7.2 30 30 WSW 10 17 29.70 1006 10 16 0.00 0.00
8:53 pm 20:53 Sunny 71 21.7 46 7.8 41 41 WSW 9 15 29.72 1006 10 16 0.00 0.00
9:53 pm 21:53 Mostly Clear 67 19.4 44 6.7 44 44 W 8 13 29.74 1007 10 16 0.00 0.00
10:53 pm 22:53 Cloudy 73 22.8 35 1.7 25 25 W 13 20 29.75 1008 10 16 0.00 0.00
11:02 pm 23:02 Cloudy 72 22.2 36 2.2 27 27 W 10 17 29.66 1005 10 16 0.00 0.00
11:53 pm 23:53 Partly Cloudy 68 20 36 2.2 31 31 W 7 11 29.78 1008 10 16 0.00 0.00

Powered by AerisWeather